Weather History for Reno - Stead, NV

Change the Weather History Date:

Sunday, August 25, 2013

  Actual Average (KRNO) Record (KRNO)
Temperature  
Mean Temperature 62 °F 71 °F  
Max Temperature 77 °F 89 °F 99 °F (1924)
Min Temperature 46 °F 54 °F 31 °F (1963)
Degree Days  
Heating Degree Days 4 0  
Month to date heating degree days 0  
Since 1 June heating degree days 61  
Since 1 July heating degree days 5  
Cooling Degree Days 0 7  
Month to date cooling degree days 223  
Year to date cooling degree days 710  
Since 1 June cooling degree days 673  
Growing Degree Days 12 (Base 50)    
Moisture  
Dew Point 35 °F    
Average Humidity 36    
Maximum Humidity 53    
Minimum Humidity 21    
Precipitation  
Precipitation 0.00 in 0.01 in 0.41 in (1967)
Month to date precipitation 0.20  
Year to date precipitation 4.66  
Snow  
Snow 0.00 in 0.00 in 0.00 in ()
Month to date snowfall 0.0  
Since 1 June snowfall T  
Since 1 July snowfall 0.0  
Snow Depth -    
Sea Level Pressure  
Sea Level Pressure 30.05 in    
Wind  
Wind Speed 9 mph (WSW)    
Max Wind Speed 24 mph    
Max Gust Speed 36 mph    
Visibility 10 miles    
Events      
T = Trace of Precipitation, MM = Missing Value Source: NWS Daily Summary

Daily Weather History Graph

Daily Weather History Graph

Search for Another Location

Airport:

Trip Planner

Search our weather history database for the weather conditions in past years. The results will help you decide how hot, cold, wet, or windy it might be!

Date:

Astronomy

Aug. 25, 2013 Rise Set
Actual Time 6:21 AM PDT 7:40 PM PDT
Civil Twilight 5:53 AM PDT 8:08 PM PDT
Nautical Twilight 5:19 AM PDT 8:42 PM PDT
Astronomical Twilight 4:44 AM PDT 9:17 PM PDT
Moon 10:16 PM PDT (8/25) 11:27 AM PDT (8/25)
Length of Visible Light 14h 15m
Length of Day
13h 19m
Waning Gibbous, 75% of the Moon is Illuminated
Aug 25
Waning Gibbous
Aug 28
Last Quarter
Sep 5
New
Sep 12
First Quarter
Sep 19
Full

Hourly Weather History & Observations

Time (PDT) Temp. Windchill Dew Point Humidity Pressure Visibility Wind Dir Wind Speed Gust Speed Precip Events Conditions
12:15 AM 60.8 °F - 33.8 °F 36% 30.03 in 10.0 mi West 15.0 mph - N/A   Clear
12:35 AM 60.8 °F - 32.0 °F 34% 30.03 in 10.0 mi West 13.8 mph - N/A   Clear
12:55 AM 60.8 °F - 33.8 °F 36% 30.03 in 10.0 mi WSW 10.4 mph - N/A   Clear
1:15 AM 62.6 °F - 32.0 °F 32% 30.03 in 10.0 mi West 11.5 mph - N/A   Clear
1:35 AM 59.0 °F - 32.0 °F 36% 30.03 in 10.0 mi Calm Calm - N/A   Partly Cloudy
1:55 AM 59.0 °F - 32.0 °F 36% 30.03 in 10.0 mi North - - N/A   Partly Cloudy
2:15 AM 57.2 °F - 32.0 °F 38% 30.03 in 10.0 mi North - - N/A   Scattered Clouds
2:35 AM 55.4 °F - 32.0 °F 41% 30.03 in 10.0 mi ENE 5.8 mph - N/A   Mostly Cloudy
2:55 AM 57.2 °F - 32.0 °F 38% 30.03 in 10.0 mi ENE 3.5 mph - N/A   Mostly Cloudy
3:15 AM 53.6 °F - 32.0 °F 44% 30.04 in 10.0 mi ESE 5.8 mph - N/A   Partly Cloudy
3:35 AM 53.6 °F - 32.0 °F 44% 30.03 in 10.0 mi East 5.8 mph - N/A   Partly Cloudy
3:55 AM 51.8 °F - 32.0 °F 47% 30.04 in 10.0 mi Calm Calm - N/A   Mostly Cloudy
4:15 AM 48.2 °F - 30.2 °F 50% 30.04 in 10.0 mi Calm Calm - N/A   Overcast
4:35 AM 53.6 °F - 32.0 °F 44% 30.04 in 10.0 mi NNW 4.6 mph - N/A   Mostly Cloudy
4:55 AM 51.8 °F - 32.0 °F 47% 30.04 in 10.0 mi Calm Calm - N/A   Mostly Cloudy
5:10 AM 50.0 °F - 32.0 °F 50% 30.04 in 10.0 mi West 3.5 mph - N/A   Scattered Clouds
5:35 AM 46.4 °F 45.2 °F 28.4 °F 50% 30.04 in 10.0 mi West 3.5 mph - N/A   Partly Cloudy
5:55 AM 48.2 °F - 30.2 °F 50% 30.04 in 10.0 mi North 3.5 mph - N/A   Clear
6:15 AM 46.4 °F 44.3 °F 28.4 °F 50% 30.05 in 10.0 mi NW 4.6 mph - N/A   Clear
6:35 AM 46.4 °F - 28.4 °F 50% 30.06 in 9.0 mi Calm Calm - N/A   Clear
6:55 AM 46.4 °F - 30.2 °F 53% 30.07 in 9.0 mi Calm Calm - N/A   Clear
7:15 AM 50.0 °F - 32.0 °F 50% 30.07 in 10.0 mi North 3.5 mph - N/A   Clear
7:35 AM 53.6 °F - 30.2 °F 41% 30.07 in 9.0 mi Calm Calm - N/A   Clear
7:55 AM 53.6 °F - 32.0 °F 44% 30.07 in 8.0 mi North 3.5 mph - N/A   Clear
8:15 AM 55.4 °F - 32.0 °F 41% 30.07 in 8.0 mi ENE 3.5 mph - N/A   Clear
8:35 AM 55.4 °F - 32.0 °F 41% 30.07 in 9.0 mi Calm Calm - N/A   Clear
8:55 AM 57.2 °F - 32.0 °F 38% 30.07 in 9.0 mi SE 3.5 mph - N/A   Clear
9:15 AM 60.8 °F - 33.8 °F 36% 30.07 in 9.0 mi Calm Calm - N/A   Clear
9:35 AM 62.6 °F - 32.0 °F 32% 30.07 in 9.0 mi SSW 3.5 mph - N/A   Clear
9:55 AM 64.4 °F - 32.0 °F 30% 30.07 in 9.0 mi Calm Calm - N/A   Clear
10:15 AM 66.2 °F - 32.0 °F 28% 30.07 in 8.0 mi SE 3.5 mph - N/A   Clear
10:35 AM 68.0 °F - 35.6 °F 30% 30.07 in 8.0 mi WNW 5.8 mph - N/A   Clear
10:55 AM 69.8 °F - 33.8 °F 27% 30.06 in 9.0 mi NE 3.5 mph - N/A   Partly Cloudy
11:15 AM 73.4 °F - 32.0 °F 22% 30.06 in 10.0 mi SSE 15.0 mph 19.6 mph N/A   Partly Cloudy
11:35 AM 73.4 °F - 32.0 °F 22% 30.06 in 10.0 mi South 6.9 mph 23.0 mph N/A   Partly Cloudy
11:55 AM 75.2 °F - 32.0 °F 21% 30.05 in 10.0 mi South 8.1 mph 17.3 mph N/A   Clear
12:15 PM 75.2 °F - 32.0 °F 21% 30.05 in 10.0 mi SW 17.3 mph 32.2 mph N/A   Clear
12:35 PM 75.2 °F - 33.8 °F 22% 30.05 in 10.0 mi SSW 8.1 mph 21.9 mph N/A   Partly Cloudy
12:55 PM 75.2 °F - 33.8 °F 22% 30.04 in 10.0 mi SW 17.3 mph 24.2 mph N/A   Clear
1:15 PM 75.2 °F - 35.6 °F 24% 30.04 in 10.0 mi WSW 11.5 mph 18.4 mph N/A   Partly Cloudy
1:35 PM 75.2 °F - 37.4 °F 25% 30.04 in 10.0 mi WSW 19.6 mph - N/A   Partly Cloudy
1:55 PM 77.0 °F - 37.4 °F 24% 30.04 in 10.0 mi WSW 17.3 mph 27.6 mph N/A   Partly Cloudy
2:15 PM 77.0 °F - 35.6 °F 22% 30.03 in 10.0 mi WSW 18.4 mph 25.3 mph N/A   Partly Cloudy
2:35 PM 77.0 °F - 35.6 °F 22% 30.03 in 10.0 mi WSW 18.4 mph 23.0 mph N/A   Clear
2:55 PM 75.2 °F - 35.6 °F 24% 30.02 in 10.0 mi WSW 13.8 mph 21.9 mph N/A   Clear
3:15 PM 75.2 °F - 33.8 °F 22% 30.03 in 10.0 mi SW 23.0 mph 35.7 mph N/A   Partly Cloudy
3:35 PM 77.0 °F - 35.6 °F 22% 30.03 in 9.0 mi SW 24.2 mph 33.4 mph N/A   Clear
3:55 PM 75.2 °F - 37.4 °F 25% 30.03 in 10.0 mi SSW 17.3 mph 26.5 mph N/A   Clear
4:15 PM 75.2 °F - 37.4 °F 25% 30.03 in 10.0 mi West 5.8 mph 27.6 mph N/A   Clear
4:35 PM 73.4 °F - 35.6 °F 25% 30.03 in 10.0 mi SW 8.1 mph 20.7 mph N/A   Partly Cloudy
4:55 PM 73.4 °F - 35.6 °F 25% 30.03 in 10.0 mi WSW 11.5 mph 18.4 mph N/A   Partly Cloudy
5:10 PM 73.4 °F - 37.4 °F 27% 30.03 in 10.0 mi SW 12.7 mph 17.3 mph N/A   Scattered Clouds
5:35 PM 73.4 °F - 35.6 °F 25% 30.02 in 10.0 mi WSW 20.7 mph 28.8 mph N/A   Partly Cloudy
5:55 PM 73.4 °F - 35.6 °F 25% 30.03 in 10.0 mi WSW 16.1 mph 23.0 mph N/A   Clear
6:15 PM 73.4 °F - 37.4 °F 27% 30.03 in 10.0 mi WSW 15.0 mph 21.9 mph N/A   Partly Cloudy
6:35 PM 71.6 °F - 37.4 °F 29% 30.03 in 10.0 mi SW 11.5 mph 23.0 mph N/A   Partly Cloudy
6:55 PM 71.6 °F - 37.4 °F 29% 30.03 in 10.0 mi SW 10.4 mph - N/A   Partly Cloudy
7:15 PM 69.8 °F - 37.4 °F 31% 30.04 in 10.0 mi WSW 12.7 mph 16.1 mph N/A   Clear
7:35 PM 68.0 °F - 39.2 °F 35% 30.05 in 10.0 mi WSW 13.8 mph - N/A   Clear
7:55 PM 66.2 °F - 39.2 °F 37% 30.06 in 10.0 mi WNW 10.4 mph - N/A   Clear
8:15 PM 64.4 °F - 39.2 °F 40% 30.06 in 10.0 mi West 11.5 mph - N/A   Clear
8:35 PM 64.4 °F - 39.2 °F 40% 30.06 in 10.0 mi West 10.4 mph - N/A   Clear
8:55 PM 62.6 °F - 39.2 °F 42% 30.07 in 10.0 mi West 10.4 mph 20.7 mph N/A   Clear
9:15 PM 62.6 °F - 41.0 °F 45% 30.07 in 10.0 mi West 11.5 mph - N/A   Clear
9:35 PM 62.6 °F - 41.0 °F 45% 30.08 in 10.0 mi West 10.4 mph - N/A   Clear
9:55 PM 62.6 °F - 41.0 °F 45% 30.08 in 10.0 mi West 5.8 mph - N/A   Clear
10:15 PM 62.6 °F - 41.0 °F 45% 30.09 in 10.0 mi WSW 4.6 mph - N/A   Clear
10:35 PM 60.8 °F - 41.0 °F 48% 30.09 in 10.0 mi WSW 6.9 mph - N/A   Clear
10:55 PM 59.0 °F - 41.0 °F 51% 30.09 in 10.0 mi West 8.1 mph - N/A   Clear
11:15 PM 59.0 °F - 41.0 °F 51% 30.08 in 10.0 mi West 11.5 mph - N/A   Clear
11:35 PM 59.0 °F - 41.0 °F 51% 30.07 in 10.0 mi West 18.4 mph - N/A   Clear
11:55 PM 59.0 °F - 41.0 °F 51% 30.07 in 10.0 mi West 13.8 mph - N/A   Clear